EW1198 Weather Reports


Display with metric or nautical units.
time (UTC)temp
F
wind
direction
speed
MPH
gust
MPH
rain 1hr
in
rain 24hr
in
rain mn
in
humidity
%
barometer
mb
20260508204304 67 248 0.0 0.0 0.00 0.00 0.00 44 1007.8
20260508203804 67 315 0.0 0.0 0.00 0.00 0.00 44 1007.9
20260508203304 67 355 0.0 0.0 0.00 0.00 0.00 43 1007.8
20260508202804 67 0 0.0 0.0 0.00 0.00 0.00 44 1007.9
20260508201804 68 306 0.0 0.0 0.00 0.00 0.00 43 1008.1
20260508201304 68 358 0.0 0.0 0.00 0.00 0.00 43 1008.1
20260508200805 68 346 0.0 0.0 0.00 0.00 0.00 42 1008.1
20260508200304 68 318 0.0 0.0 0.00 0.00 0.00 41 1008.2
20260508195804 68 354 0.0 0.0 0.00 0.00 0.00 41 1008.2
20260508195306 68 341 0.0 0.0 0.00 0.00 0.00 40 1008.2
20260508194303 69 296 0.0 3.0 0.00 0.00 0.00 39 1008.3
20260508193804 69 348 0.0 0.0 0.00 0.00 0.00 39 1008.3
20260508193303 69 319 0.0 0.0 0.00 0.00 0.00 40 1008.3
20260508192306 70 341 0.0 0.0 0.00 0.00 0.00 40 1008.6
20260508191804 69 329 0.0 0.0 0.00 0.00 0.00 39 1008.6
20260508191304 69 318 0.0 0.0 0.00 0.00 0.00 39 1008.8
20260508190803 70 347 1.0 10.0 0.00 0.00 0.00 39 1008.8
20260508190304 69 344 0.0 0.0 0.00 0.00 0.00 41 1009.0
20260508185804 69 293 0.0 0.0 0.00 0.00 0.00 40 1009.2
20260508185306 69 284 0.0 1.0 0.00 0.00 0.00 41 1009.2
20260508184304 69 265 0.0 6.0 0.00 0.00 0.00 41 1009.3
20260508183804 69 305 1.0 5.0 0.00 0.00 0.00 41 1009.3
20260508182803 69 340 0.0 1.0 0.00 0.00 0.00 39 1009.4
20260508182306 70 329 0.0 0.0 0.00 0.00 0.00 42 1009.4
20260508181803 69 332 0.0 0.0 0.00 0.00 0.00 42 1009.5
20260508181304 69 348 0.0 0.0 0.00 0.00 0.00 42 1009.4
20260508180804 68 267 0.0 2.0 0.00 0.00 0.00 44 1009.5
20260508180303 67 228 0.0 0.0 0.00 0.00 0.00 44 1009.7
20260508175804 67 349 0.0 0.0 0.00 0.00 0.00 45 1009.8
20260508175306 67 340 0.0 0.0 0.00 0.00 0.00 43 1009.9
20260508174303 67 343 0.0 0.0 0.00 0.00 0.00 43 1009.8
20260508173805 67 321 0.0 3.0 0.00 0.00 0.00 43 1009.9
20260508172804 68 332 0.0 3.0 0.00 0.00 0.00 43 1010.1
20260508172307 68 325 0.0 3.0 0.00 0.00 0.00 42 1010.1
20260508171303 69 357 0.0 2.0 0.00 0.00 0.00 42 1010.2
20260508170304 70 285 0.0 2.0 0.00 0.00 0.00 41 1010.4
20260508165804 69 321 1.0 6.0 0.00 0.00 0.00 41 1010.5
20260508165306 68 344 1.0 6.0 0.00 0.00 0.00 42 1010.6
20260508164304 67 299 0.0 3.0 0.00 0.00 0.00 42 1010.8
20260508163804 67 341 1.0 3.0 0.00 0.00 0.00 43 1010.8
20260508163304 68 293 0.0 3.0 0.00 0.00 0.00 43 1010.9
20260508162804 68 341 0.0 3.0 0.00 0.00 0.00 43 1011.1
20260508162306 67 332 2.0 15.0 0.00 0.00 0.00 43 1011.0
20260508161803 67 347 0.0 6.0 0.00 0.00 0.00 44 1011.1
20260508161304 66 337 0.0 3.0 0.00 0.00 0.00 44 1011.0
20260508160804 66 202 0.0 3.0 0.00 0.00 0.00 45 1011.2
20260508160304 66 229 0.0 5.0 0.00 0.00 0.00 46 1011.2
20260508155306 66 351 0.0 6.0 0.00 0.00 0.00 45 1011.2
20260508154303 64 264 0.0 3.0 0.00 0.00 0.00 48 1011.3
20260508153804 64 331 0.0 3.0 0.00 0.00 0.00 48 1011.4
20260508153303 65 298 0.0 0.0 0.00 0.00 0.00 49 1011.4
20260508152803 64 231 0.0 0.0 0.00 0.00 0.00 48 1011.4
20260508152306 64 339 0.0 2.0 0.00 0.00 0.00 48 1011.4
20260508151803 64 162 1.0 3.0 0.00 0.00 0.00 50 1011.4
20260508151304 63 237 0.0 3.0 0.00 0.00 0.00 49 1011.5
20260508150803 63 323 0.0 2.0 0.00 0.00 0.00 50 1011.7
20260508145804 62 225 0.0 0.0 0.00 0.00 0.00 50 1011.4
20260508145306 62 247 0.0 3.0 0.00 0.00 0.00 49 1011.6
20260508144803 62 357 0.0 2.0 0.00 0.00 0.00 50 1011.6
20260508144304 62 287 1.0 3.0 0.00 0.00 0.00 49 1011.8
20260508143804 62 322 0.0 2.0 0.00 0.00 0.00 49 1011.8
20260508143304 62 341 1.0 3.0 0.00 0.00 0.00 49 1011.8
20260508142804 62 307 0.0 3.0 0.00 0.00 0.00 50 1011.8
20260508142306 62 194 0.0 3.0 0.00 0.00 0.00 50 1011.8
20260508141303 61 238 0.0 2.0 0.00 0.00 0.00 51 1012.1
20260508140805 60 355 0.0 3.0 0.00 0.00 0.00 52 1012.1
20260508140304 60 350 0.0 5.0 0.00 0.00 0.00 52 1012.1
20260508135803 60 228 1.0 3.0 0.00 0.00 0.00 52 1012.1
20260508135306 59 301 0.0 3.0 0.00 0.00 0.00 54 1012.2
20260508134304 59 354 0.0 3.0 0.00 0.00 0.00 53 1012.1
20260508133304 58 347 0.0 1.0 0.00 0.00 0.00 53 1012.1
20260508132803 58 354 0.0 1.0 0.00 0.00 0.00 55 1012.0
20260508132306 57 317 0.0 3.0 0.00 0.00 0.00 56 1012.0
20260508131804 57 357 0.0 1.0 0.00 0.00 0.00 57 1012.1
20260508131304 56 326 0.0 1.0 0.00 0.00 0.00 58 1012.0
20260508130804 56 271 0.0 2.0 0.00 0.00 0.00 57 1012.0
20260508130304 56 353 0.0 1.0 0.00 0.00 0.00 58 1012.1
20260508125306 56 217 0.0 1.0 0.00 0.00 0.00 59 1012.1
20260508124303 55 0 0.0 2.0 0.00 0.00 0.00 60 1012.1
20260508123303 54 139 1.0 3.0 0.00 0.00 0.00 62 1012.1
20260508122804 53 0 0.0 1.0 0.00 0.00 0.00 62 1012.1
20260508122307 53 3 0.0 2.0 0.00 0.00 0.00 63 1012.0
20260508121804 52 357 0.0 3.0 0.00 0.00 0.00 64 1012.1
20260508121303 52 154 1.0 3.0 0.00 0.00 0.00 63 1012.1
20260508120804 53 358 0.0 0.0 0.00 0.00 0.00 64 1012.1
20260508115804 52 29 0.0 1.0 0.00 0.00 0.00 65 1012.0
20260508115306 51 216 0.0 1.0 0.00 0.00 0.00 66 1011.9
20260508114803 51 112 0.0 1.0 0.00 0.00 0.00 66 1011.9
20260508114303 51 0 0.0 2.0 0.00 0.00 0.00 67 1011.9
20260508113804 50 150 0.0 1.0 0.00 0.00 0.00 66 1011.8
20260508113304 50 316 0.0 1.0 0.00 0.00 0.00 67 1011.8
20260508112803 50 216 0.0 1.0 0.00 0.00 0.00 67 1011.7
20260508112307 50 172 0.0 1.0 0.00 0.00 0.00 67 1011.6
20260508111804 50 133 0.0 2.0 0.00 0.00 0.00 68 1011.6
20260508111304 50 2 0.0 1.0 0.00 0.00 0.00 69 1011.6
20260508110804 49 357 0.0 1.0 0.00 0.00 0.00 70 1011.6
20260508110304 49 226 0.0 1.0 0.00 0.00 0.00 70 1011.5
20260508105804 49 0 0.0 0.0 0.00 0.00 0.00 70 1011.5
20260508105306 49 0 0.0 0.0 0.00 0.00 0.00 70 1011.4
20260508104804 49 0 0.0 0.0 0.00 0.00 0.00 70 1011.4
20260508104303 49 0 0.0 0.0 0.00 0.00 0.00 71 1011.4
20260508103804 49 0 0.0 1.0 0.00 0.00 0.00 71 1011.5
20260508103304 49 192 0.0 0.0 0.00 0.00 0.00 71 1011.4
20260508102804 48 185 0.0 1.0 0.00 0.00 0.00 71 1011.4
20260508101804 48 357 0.0 1.0 0.00 0.00 0.00 72 1011.3
20260508101303 48 138 0.0 0.0 0.00 0.00 0.00 73 1011.3
20260508100304 48 139 0.0 1.0 0.00 0.00 0.00 73 1011.4
20260508095803 47 0 0.0 0.0 0.00 0.00 0.00 73 1011.4
20260508095306 47 189 0.0 1.0 0.00 0.00 0.00 73 1011.4
20260508094804 47 173 0.0 0.0 0.00 0.00 0.00 73 1011.5
20260508094304 47 175 0.0 0.0 0.00 0.00 0.00 73 1011.5
20260508093804 47 175 0.0 0.0 0.00 0.00 0.00 72 1011.5
20260508093304 47 175 0.0 0.0 0.00 0.00 0.00 72 1011.6
20260508092804 47 215 0.0 0.0 0.00 0.00 0.00 72 1011.6
20260508092312 47 165 0.0 0.0 0.00 0.00 0.00 71 1011.6
20260508091803 47 165 0.0 0.0 0.00 0.00 0.00 71 1011.5
20260508091304 48 154 0.0 0.0 0.00 0.00 0.00 71 1011.6
20260508090803 48 0 0.0 0.0 0.00 0.00 0.00 70 1011.6
20260508090304 48 197 0.0 0.0 0.00 0.00 0.00 70 1011.5
20260508085804 48 218 0.0 1.0 0.00 0.00 0.00 70 1011.6
20260508085307 48 350 0.0 0.0 0.00 0.00 0.00 70 1011.5
20260508084804 48 355 0.0 1.0 0.00 0.00 0.00 69 1011.5
20260508084304 48 143 0.0 0.0 0.00 0.00 0.00 69 1011.5
20260508083804 48 165 0.0 0.0 0.00 0.00 0.00 68 1011.6
20260508083303 48 178 0.0 0.0 0.00 0.00 0.00 68 1011.6
20260508082804 48 178 0.0 1.0 0.00 0.00 0.00 68 1011.6
20260508082306 48 192 0.0 0.0 0.00 0.00 0.00 68 1011.6
20260508081803 48 194 0.0 0.0 0.00 0.00 0.00 68 1011.5
20260508081304 49 192 0.0 0.0 0.00 0.00 0.00 67 1011.6
20260508080804 49 0 0.0 1.0 0.00 0.00 0.00 67 1011.6
20260508080303 49 0 0.0 0.0 0.00 0.00 0.00 67 1011.5
20260508075804 49 0 0.0 2.0 0.00 0.00 0.00 67 1011.5
20260508075308 49 0 0.0 1.0 0.00 0.00 0.00 66 1011.6
20260508074803 49 354 0.0 1.0 0.00 0.00 0.00 66 1011.6
20260508073804 49 217 0.0 0.0 0.00 0.00 0.00 66 1011.5
20260508073304 49 217 0.0 1.0 0.00 0.00 0.00 65 1011.5
20260508072804 49 220 0.0 0.0 0.00 0.00 0.00 65 1011.5
20260508072307 49 0 0.0 0.0 0.00 0.00 0.00 65 1011.5
20260508071804 49 233 0.0 0.0 0.00 0.00 0.00 65 1011.8
20260508071303 49 233 0.0 0.0 0.00 0.00 0.00 65 1011.8
20260508070804 49 248 0.0 0.0 0.00 0.00 0.00 65 1011.9
20260508065803 49 0 0.0 0.0 0.00 0.00 0.00 64 1011.8
20260508065307 49 222 0.0 1.0 0.00 0.00 0.00 64 1011.8
20260508064804 49 235 0.0 0.0 0.00 0.00 0.00 63 1011.9
20260508064304 50 236 0.0 0.0 0.00 0.00 0.00 63 1012.0
20260508063304 50 212 0.0 0.0 0.00 0.00 0.00 63 1012.0
20260508061804 50 0 0.0 0.0 0.00 0.00 0.00 62 1012.0
20260508061303 50 263 0.0 1.0 0.00 0.00 0.00 62 1011.9
20260508060803 50 248 0.0 1.0 0.00 0.00 0.00 62 1011.9
20260508055805 51 217 0.0 1.0 0.00 0.00 0.00 61 1011.9
20260508055306 51 172 0.0 1.0 0.00 0.00 0.00 61 1012.0
20260508054804 51 357 0.0 1.0 0.00 0.00 0.00 61 1011.9
20260508053304 51 267 0.0 2.0 0.00 0.00 0.00 60 1012.0
20260508052804 51 0 0.0 1.0 0.00 0.00 0.00 61 1012.1
20260508052306 51 328 0.0 1.0 0.00 0.00 0.00 61 1012.0
20260508051803 51 339 0.0 2.0 0.00 0.00 0.00 61 1011.9
20260508051304 52 349 0.0 1.0 0.00 0.00 0.00 61 1012.0
20260508050804 52 164 0.0 1.0 0.00 0.00 0.00 61 1012.1
20260508050304 52 356 0.0 1.0 0.00 0.00 0.00 60 1012.1
20260508045804 52 344 0.0 1.0 0.00 0.00 0.00 60 1012.1
20260508045306 52 239 0.0 1.0 0.00 0.00 0.00 60 1012.0
20260508044804 52 184 0.0 1.0 0.00 0.00 0.00 60 1012.0
20260508043804 52 349 0.0 1.0 0.00 0.00 0.00 59 1012.0
20260508043303 52 357 0.0 0.0 0.00 0.00 0.00 58 1011.8
20260508042804 52 306 0.0 0.0 0.00 0.00 0.00 58 1011.8
20260508042307 53 211 0.0 0.0 0.00 0.00 0.00 58 1012.0
20260508041803 53 211 0.0 0.0 0.00 0.00 0.00 57 1012.0
20260508041304 53 230 0.0 0.0 0.00 0.00 0.00 57 1012.0
20260508040804 53 0 0.0 0.0 0.00 0.00 0.00 57 1012.0
20260508040304 53 234 0.0 1.0 0.00 0.00 0.00 57 1011.9
20260508035803 53 178 0.0 0.0 0.00 0.00 0.00 56 1011.8
20260508035306 53 187 0.0 1.0 0.00 0.00 0.00 56 1011.9
20260508034804 54 0 0.0 1.0 0.00 0.00 0.00 56 1012.0
20260508034304 54 356 0.0 0.0 0.00 0.00 0.00 55 1012.0
20260508033803 54 240 0.0 2.0 0.00 0.00 0.00 55 1011.9
20260508032804 54 238 0.0 1.0 0.00 0.00 0.00 55 1012.0
20260508031804 54 233 0.0 1.0 0.00 0.00 0.00 54 1012.0
20260508031304 54 224 0.0 0.0 0.00 0.00 0.00 54 1012.0
20260508030804 54 343 0.0 0.0 0.00 0.00 0.00 54 1012.0
20260508025306 55 0 0.0 1.0 0.00 0.00 0.00 53 1011.8
20260508024805 55 302 0.0 0.0 0.00 0.00 0.00 54 1011.7
20260508024304 55 324 0.0 0.0 0.00 0.00 0.00 53 1011.7
20260508023804 55 351 0.0 0.0 0.00 0.00 0.00 53 1011.7
20260508023304 55 211 0.0 0.0 0.00 0.00 0.00 53 1011.6
20260508022804 55 0 0.0 0.0 0.00 0.00 0.00 52 1011.7
20260508021805 55 0 0.0 0.0 0.00 0.00 0.00 50 1011.7
20260508021304 55 209 0.0 0.0 0.00 0.00 0.00 50 1011.6
20260508020304 56 167 0.0 0.0 0.00 0.00 0.00 50 1011.6
20260508015804 56 169 0.0 0.0 0.00 0.00 0.00 50 1011.6
20260508015306 56 189 0.0 0.0 0.00 0.00 0.00 49 1011.7
20260508014303 56 352 0.0 0.0 0.00 0.00 0.00 48 1011.7
20260508013803 56 356 0.0 0.0 0.00 0.00 0.00 48 1011.6
20260508013304 56 277 0.0 0.0 0.00 0.00 0.00 48 1011.7
20260508012803 56 212 0.0 0.0 0.00 0.00 0.00 46 1011.7
20260508012307 56 0 0.0 0.0 0.00 0.00 0.00 46 1011.6
20260508011804 57 218 0.0 0.0 0.00 0.00 0.00 46 1011.7
20260508010804 57 0 0.0 0.0 0.00 0.00 0.00 45 1011.6
20260508010303 57 0 0.0 0.0 0.00 0.00 0.00 44 1011.6
20260508005803 57 0 0.0 0.0 0.00 0.00 0.00 44 1011.7
20260508005306 57 0 0.0 0.0 0.00 0.00 0.00 44 1011.7
20260508004805 58 0 0.0 0.0 0.00 0.00 0.00 43 1011.7
20260508004303 58 0 0.0 0.0 0.00 0.00 0.00 42 1011.7
20260508003804 58 0 0.0 0.0 0.00 0.00 0.00 42 1011.7
20260508003304 58 0 0.0 0.0 0.00 0.00 0.00 41 1011.7
20260508002803 58 0 0.0 0.0 0.00 0.00 0.00 41 1011.7
20260508001804 58 0 0.0 0.0 0.00 0.00 0.00 40 1011.4
20260508001304 59 0 0.0 0.0 0.00 0.00 0.00 40 1011.5
20260508000804 59 242 0.0 0.0 0.00 0.00 0.00 39 1011.5
20260508000305 59 355 0.0 0.0 0.00 0.00 0.00 39 1011.4
20260507235804 59 0 0.0 0.0 0.00 0.00 0.00 39 1011.4
20260507235306 60 317 0.0 0.0 0.00 0.00 0.00 38 1011.4
20260507234804 60 0 0.0 0.0 0.00 0.00 0.00 38 1011.4
20260507233804 60 349 0.0 0.0 0.00 0.00 0.00 37 1011.4
20260507233304 60 351 0.0 0.0 0.00 0.00 0.00 37 1011.4
20260507232804 60 328 0.0 0.0 0.00 0.00 0.00 37 1011.4
20260507232306 60 355 0.0 0.0 0.00 0.00 0.00 37 1011.4
20260507231804 60 323 0.0 0.0 0.00 0.00 0.00 37 1011.5
20260507231303 61 0 0.0 0.0 0.00 0.00 0.00 36 1011.5
20260507230804 61 357 0.0 0.0 0.00 0.00 0.00 37 1011.5
20260507230304 60 0 0.0 0.0 0.00 0.00 0.00 36 1011.5
20260507225803 61 356 0.0 0.0 0.00 0.00 0.00 35 1011.5
20260507225306 61 336 0.0 0.0 0.00 0.00 0.00 36 1011.4
20260507224804 61 354 0.0 0.0 0.00 0.00 0.00 36 1011.4
20260507224303 61 171 0.0 0.0 0.00 0.00 0.00 35 1011.4
20260507223803 61 349 0.0 0.0 0.00 0.00 0.00 35 1011.4
20260507223304 61 347 0.0 0.0 0.00 0.00 0.00 36 1011.3
20260507222804 61 0 0.0 0.0 0.00 0.00 0.00 35 1011.5
20260507222306 61 244 0.0 0.0 0.00 0.00 0.00 35 1011.5
20260507221803 61 355 0.0 0.0 0.00 0.00 0.00 34 1011.6
20260507221304 62 332 0.0 0.0 0.00 0.00 0.00 34 1011.5
20260507220804 62 344 0.0 0.0 0.00 0.00 0.00 33 1011.6
20260507220304 62 339 0.0 0.0 0.00 0.00 0.00 33 1011.6
20260507215804 62 335 0.0 0.0 0.00 0.00 0.00 33 1011.6
20260507215306 62 330 0.0 2.0 0.00 0.00 0.00 33 1011.7
20260507214303 61 0 0.0 0.0 0.00 0.00 0.00 35 1011.7
20260507213804 61 343 0.0 1.0 0.00 0.00 0.00 35 1011.7
20260507213304 62 350 0.0 0.0 0.00 0.00 0.00 35 1011.7
20260507212804 61 344 0.0 0.0 0.00 0.00 0.00 37 1011.6
20260507212307 61 296 0.0 0.0 0.00 0.00 0.00 35 1011.7
20260507211803 61 341 0.0 0.0 0.00 0.00 0.00 36 1011.7
20260507211303 62 343 0.0 0.0 0.00 0.00 0.00 34 1011.7
20260507210803 63 339 0.0 0.0 0.00 0.00 0.00 33 1011.6
20260507210303 63 322 0.0 0.0 0.00 0.00 0.00 33 1011.7
20260507204804 63 351 0.0 0.0 0.00 0.00 0.00 34 1011.6